Home   Weather   Nottingham   Past weeks
Flag for United Kingdom

Past Weather in Nottingham, England, United Kingdom — Yesterday and Last 2 Weeks

Now
50 °F

Passing clouds.


Feels Like: 45 °F
Forecast: N/A
Wind: 14 mph from Southwest

Location: East Midlands

Current Time: Mar 22, 2019 at 11:14:53 pm

Latest Report: Mar 22, 2019 at 10:50 pm


Visibility: N/A

Pressure: 30.30 "Hg

Humidity: 82%

Dew Point: 45 °F

Location of NottinghamLocation

Past Weather in Nottingham — Graph

°F

Nottingham Temperature Yesterday

Maximum temperature yesterday: 57 °F (at 11:50 am)
Minimum temperature yesterday: 45 °F (at 1:20 am)
Average temperature yesterday: 51 °F

High & Low Weather Summary for the Past Weeks

 TemperatureHumidityPressure
High59 °F (Mar 20, 12:50 pm)100% (Mar 8, 2:20 am)30.51 "Hg (Mar 8, 2:20 am)
Low36 °F (Mar 10, 9:50 pm)46% (Mar 11, 2:50 pm)29.21 "Hg (Mar 16, 6:20 pm)
Average46 °F82%29.89 "Hg
* Reported Mar 7 9:20 pm — Mar 22 9:50 pm, Nottingham. Weather by CustomWeather, © 2019

Note: Actual official high and low records may vary slightly from our data, if they occured in-between our weather recording intervals... More about our weather records

Advertising

Nottingham Weather History for the Previous 24 Hours

Scroll right to see more
 ConditionsComfort  
Time TempWeatherWind HumidityBarometerVisibility
9:50 pm
Fri, Mar 22
52 °FPassing clouds.14 mph77%30.30 "HgN/A
9:20 pm52 °FPassing clouds.14 mph72%30.30 "HgN/A
8:50 pm50 °FPassing clouds.15 mph76%30.30 "HgN/A
8:20 pm52 °FPassing clouds.14 mph72%30.30 "HgN/A
7:50 pm52 °FPassing clouds.14 mph72%30.30 "HgN/A
7:20 pm52 °FPassing clouds.15 mph72%30.27 "HgN/A
6:50 pm52 °FPassing clouds.15 mph72%30.27 "HgN/A
6:20 pm52 °FPartly sunny.16 mph72%30.27 "HgN/A
5:50 pm52 °FPartly sunny.17 mph72%30.27 "HgN/A
5:20 pm52 °FPartly sunny.17 mph72%30.27 "HgN/A
4:50 pm54 °FPartly sunny.20 mph67%30.27 "HgN/A
4:20 pm54 °FPartly sunny.16 mph67%30.24 "HgN/A
3:50 pm54 °FPartly sunny.17 mph67%30.24 "HgN/A
3:20 pm54 °FPartly sunny.14 mph67%30.24 "HgN/A
2:50 pm55 °FPartly sunny.16 mph63%30.24 "HgN/A
2:20 pm55 °FPartly sunny.14 mph63%30.24 "HgN/A
1:50 pm55 °FPartly sunny.17 mph63%30.24 "HgN/A
1:20 pm54 °FPartly sunny.17 mph67%30.27 "HgN/A
12:50 pm54 °FPartly sunny.15 mph63%30.27 "HgN/A
12:20 pm52 °FPartly sunny.16 mph72%30.27 "HgN/A
11:50 am52 °FBroken clouds.16 mph72%30.27 "HgN/A
10:50 am50 °FPartly sunny.12 mph82%30.30 "HgN/A
10:20 am50 °FPartly sunny.17 mph76%30.30 "HgN/A
9:50 am50 °FBroken clouds.17 mph82%30.30 "HgN/A
9:20 am48 °FPartly sunny.17 mph87%30.30 "HgN/A
8:50 am48 °FPartly sunny.14 mph87%30.30 "HgN/A
8:20 am48 °FPartly sunny.16 mph87%30.30 "HgN/A
7:50 am50 °FBroken clouds.15 mph88%30.30 "HgN/A
7:20 am50 °FBroken clouds.14 mph88%30.33 "HgN/A
6:50 am50 °FPartly sunny.12 mph88%30.30 "HgN/A
6:20 am50 °FPartly sunny.12 mph88%30.30 "HgN/A
5:50 am50 °FPassing clouds.10 mph88%30.30 "HgN/A
5:20 am50 °FPassing clouds.10 mph88%30.33 "HgN/A
4:50 am50 °FPassing clouds.10 mph88%30.33 "HgN/A
4:20 am50 °FPassing clouds.10 mph88%30.33 "HgN/A
3:50 am50 °FPassing clouds.10 mph88%30.33 "HgN/A
3:20 am50 °FPassing clouds.12 mph88%30.36 "HgN/A
2:50 am50 °FPassing clouds.10 mph88%30.36 "HgN/A
2:20 am50 °FPassing clouds.10 mph88%30.36 "HgN/A
1:50 am50 °FPassing clouds.9 mph88%30.36 "HgN/A
1:20 am50 °FPassing clouds.9 mph88%30.36 "HgN/A
12:50 am50 °FPassing clouds.8 mph88%30.39 "HgN/A
12:20 am50 °FPassing clouds.10 mph88%30.39 "HgN/A
11:50 pm
Thu, Mar 21
50 °FPassing clouds.9 mph88%30.42 "HgN/A
11:20 pm50 °FPassing clouds.7 mph88%30.42 "HgN/A
Weather by CustomWeather, © 2019

See weather overview